W9LRT-WX Weather Reports


Display with metric or nautical units.
time (UTC)temp
F
wind
direction
speed
MPH
gust
MPH
rain 1hr
in
rain 24hr
in
rain mn
in
humidity
%
barometer
mb
20260906092501 66 74 4.0 8.0 0.00 0.00 0.00 83 1016.2
20260906091000 67 74 4.0 9.0 0.00 0.00 0.00 83 1016.0
20260906085501 67 59 4.0 9.0 0.00 0.00 0.00 87 1015.9
20260906084000 68 99 4.0 10.0 0.00 0.00 0.00 89 1015.8
20260906082503 68 62 4.0 10.0 0.00 0.00 0.00 92 1015.8
20260906081004 69 76 5.0 10.0 0.00 0.00 0.00 94 1015.7
20260906075502 69 47 4.0 7.0 0.00 0.00 0.00 93 1015.7
20260906074001 70 65 4.0 7.0 0.00 0.00 0.00 93 1015.6
20260906072502 70 51 4.0 7.0 0.00 0.00 0.00 92 1015.8
20260906071001 70 64 4.0 7.0 0.00 0.00 0.00 91 1015.8
20260906065500 70 58 5.0 8.0 0.00 0.00 0.00 91 1015.7
20260906063958 70 71 5.0 9.0 0.00 0.00 0.00 90 1015.8
20260906062459 71 65 4.0 8.0 0.00 0.00 0.00 90 1015.8
20260906060958 71 79 5.0 10.0 0.00 0.00 0.00 90 1015.7
20260906055456 71 62 6.0 9.0 0.00 0.00 0.00 90 1015.5
20260906053957 71 65 4.0 7.0 0.00 0.00 0.00 89 1015.4
20260906052452 71 61 5.0 8.0 0.00 0.00 0.00 89 1015.4
20260906050952 71 50 4.0 8.0 0.00 0.00 0.00 90 1015.3
20260906045452 71 53 6.0 9.0 0.00 0.00 0.00 90 1015.2
20260906043953 71 36 6.0 11.0 0.00 0.00 0.00 90 1015.2
20260906042452 71 36 5.0 10.0 0.00 0.00 0.00 91 1015.1
20260906040952 71 58 6.0 8.0 0.00 0.00 0.00 91 1015.0
20260906035452 71 41 6.0 9.0 0.00 0.00 0.00 91 1015.0
20260906033950 71 49 6.0 8.0 0.00 0.00 0.00 91 1014.8
20260906032451 71 51 4.0 7.0 0.00 0.00 0.00 91 1014.6
20260906030951 71 52 5.0 9.0 0.00 0.00 0.00 90 1014.7
20260906025452 71 27 5.0 9.0 0.00 0.00 0.00 90 1014.7
20260906023951 72 65 5.0 9.0 0.00 0.00 0.00 90 1014.6
20260906022450 72 49 6.0 10.0 0.00 0.00 0.00 90 1014.5
20260906020951 73 47 7.0 12.0 0.00 0.00 0.00 90 1014.5
20260906015451 73 45 6.0 10.0 0.00 0.00 0.00 90 1014.2
20260906013950 73 90 7.0 14.0 0.00 0.00 0.00 89 1014.2
20260906012450 73 63 7.0 14.0 0.00 0.00 0.00 89 1014.1
20260906010949 74 67 7.0 14.0 0.00 0.00 0.00 88 1013.9
20260906005450 74 29 7.0 15.0 0.00 0.00 0.00 87 1013.7
20260906003948 75 66 8.0 18.0 0.00 0.00 0.00 87 1013.6
20260906002448 76 54 6.0 14.0 0.00 0.00 0.00 87 1013.5
20260906000948 76 63 8.0 13.0 0.00 0.00 0.00 86 1013.4
20260905235444 77 67 7.0 14.0 0.00 0.00 0.00 84 1012.9
20260905233943 78 53 7.0 13.0 0.00 0.00 0.00 83 1012.7
20260905232440 79 42 7.0 11.0 0.00 0.00 0.00 82 1012.7
20260905230938 79 58 9.0 14.0 0.00 0.00 0.00 82 1012.5
20260905225441 80 51 7.0 12.0 0.00 0.00 0.00 80 1012.5
20260905223939 80 53 8.0 13.0 0.00 0.00 0.00 80 1012.3
20260905222438 80 74 9.0 19.0 0.00 0.00 0.00 81 1012.1
20260905220938 81 67 10.0 19.0 0.00 0.00 0.00 80 1012.0
20260905215438 81 38 10.0 19.0 0.00 0.00 0.00 80 1011.8
20260905213936 82 31 7.0 16.0 0.00 0.00 0.00 80 1011.7
20260905212435 83 53 8.0 16.0 0.00 0.00 0.00 79 1011.6
20260905210936 83 0 7.0 16.0 0.00 0.00 0.00 79 1011.5
20260905205436 83 41 8.0 16.0 0.00 0.00 0.00 79 1011.6
20260905203937 84 34 8.0 12.0 0.00 0.00 0.00 78 1011.6
20260905202436 86 5 4.0 12.0 0.00 0.00 0.00 74 1011.7
20260905200937 85 28 6.0 12.0 0.00 0.00 0.00 74 1011.8
20260905195435 89 0 2.0 12.0 0.00 0.00 0.00 70 1011.9
20260905193933 88 241 3.0 12.0 0.00 0.00 0.00 73 1011.9
20260905192435 88 0 2.0 12.0 0.00 0.00 0.00 73 1012.1
20260905190935 86 227 0.0 12.0 0.00 0.00 0.00 76 1012.2
20260905185433 84 351 3.0 12.0 0.00 0.00 0.00 78 1012.4
20260905183933 83 276 3.0 12.0 0.00 0.00 0.00 78 1012.4
20260905182434 82 252 3.0 12.0 0.00 0.00 0.00 82 1012.6
20260905180934 81 223 4.0 12.0 0.00 0.00 0.00 83 1012.8
20260905175433 84 0 3.0 12.0 0.00 0.00 0.00 82 1012.8
20260905173934 81 0 1.0 12.0 0.00 0.00 0.00 83 1012.9
20260905172433 81 218 2.0 12.0 0.00 0.00 0.00 83 1013.1
20260905170935 79 0 3.0 12.0 0.00 0.00 0.00 85 1013.2
20260905165434 79 265 1.0 12.0 0.00 0.00 0.00 85 1013.4
20260905163936 78 210 3.0 12.0 0.00 0.00 0.00 86 1013.3
20260905162436 78 148 3.0 12.0 0.00 0.00 0.00 87 1013.4
20260905160933 79 176 2.0 12.0 0.00 0.00 0.00 86 1013.3
20260905155433 77 148 3.0 12.0 0.00 0.00 0.00 87 1013.4
20260905153934 77 195 2.0 12.0 0.00 0.00 0.00 87 1013.5
20260905152436 77 160 2.0 12.0 0.00 0.00 0.00 87 1013.2
20260905150934 77 187 1.0 12.0 0.00 0.00 0.00 88 1013.2
20260905145433 77 170 1.0 12.0 0.00 0.00 0.00 87 1013.2
20260905143933 77 120 1.0 12.0 0.00 0.00 0.00 86 1013.2
20260905142434 76 0 0.0 12.0 0.00 0.00 0.00 88 1013.2
20260905140933 76 10 1.0 12.0 0.00 0.00 0.00 87 1013.1
20260905135433 75 240 3.0 12.0 0.00 0.00 0.00 89 1012.9
20260905133934 74 207 5.0 12.0 0.00 0.00 0.00 89 1012.6
20260905132433 74 0 7.0 12.0 0.00 0.00 0.00 90 1012.5
20260905130934 73 200 6.0 12.0 0.00 0.00 0.00 91 1012.4
20260905125434 73 70 6.0 12.0 0.00 0.00 0.00 92 1012.3
20260905123933 73 165 5.0 9.0 0.00 0.00 0.00 94 1012.5
20260905122434 72 173 5.0 9.0 0.00 0.00 0.00 95 1012.3
20260905120934 72 183 4.0 8.0 0.00 0.00 0.00 95 1012.3
20260905115433 72 184 3.0 6.0 0.00 0.00 0.00 94 1012.2
20260905113935 72 168 3.0 6.0 0.00 0.00 0.00 94 1012.0
20260905112434 72 161 2.0 5.0 0.00 0.00 0.00 94 1011.9
20260905110935 71 181 2.0 5.0 0.00 0.00 0.00 94 1011.8
20260905105433 71 0 0.0 5.0 0.00 0.00 0.00 94 1011.7
20260905103934 71 161 2.0 6.0 0.00 0.00 0.00 94 1011.6
20260905102432 71 182 1.0 5.0 0.00 0.00 0.00 93 1011.5
20260905100933 71 151 0.0 4.0 0.00 0.00 0.00 93 1011.6
20260905095435 71 152 2.0 6.0 0.00 0.00 0.00 93 1011.6